Regional Weather Roundup
Issued by NWS Pendleton, OR

Home | Current Version | Previous Version | Text Only | Print | Product List | Glossary On
Versions: 1 2 3 4 5 6 7 8 9 10 11 12 13 14 15 16 17 18 19 20 21 22 23 24 25 26 27 28 29 30 31 32 33 34 35 36 37 38 39 40 41 42 43 44 45 46 47 48 49 50
000
ASUS46 KPDT 300510
RWRPDT
PENDLETON REGIONAL WEATHER ROUNDUP
NATIONAL WEATHER SERVICE PENDLETON OREGON
1000 PM PDT FRI APR 29 2016

NOTE: FAIR INDICATES FEW OR NO CLOUDS BELOW 12,000 FEET WITH NO
SIGNIFICANT WEATHER AND/OR OBSTRUCTIONS TO VISIBILITY.

# INDICATES UNOFFICIAL STATION AND DATA

WAZ520-300610-
EAST SLOPES OF WASHINGTON CASCADES

CITY            SKY/WX      TMP DP  RH  WIND    PRES   REMARKS
#CLE ELUM HS    N/A         46  36  68  W7      30.07R
#CLE ELUM 2NW   N/A         45  36  70  W1      N/A
#CLE ELUM LAKE  N/A         43  36  76  NW2     30.12R
#GLENWOOD       N/A         41  35  79  CALM    30.11R
#MANASTASH CYN  N/A         45  30  55  S1      30.06R
#NELSON 3SW     N/A         43  35  73  CALM    30.33R
#NILE           N/A         46  35  65  SW1     29.39R
#TEANAWAY 4NE   N/A         45  37  73  SW1     N/A
#TROUT LAKE 1NE N/A         49  37  63  W12     30.11R WCI 44
#TROUT LAKE 1E  N/A         49  37  63  CALM    30.07R
$$

WAZ521-300610-
SIMCOE HIGHLANDS

CITY            SKY/WX      TMP DP  RH  WIND    PRES   REMARKS
#BICKLETON HS   N/A         42  26  53  NW9     N/A
#CENTERVILLE 1SWN/A         47  39  74  W10     30.07R
#GOLDENDALE 1NE N/A         49  26  40  W3      N/A
#GOODNOE HILLS  N/A         51  40  66  W15     29.99R
#LYLE 6NE       N/A         48  42  80  SW7     30.09R
$$

WAZ026-300610-
KITTITAS VALLEY

CITY            SKY/WX      TMP DP  RH  WIND    PRES   REMARKS
ELLENSBURG AP   MOCLDY      50  35  56  NW20    30.07R
YTC-OPS AREA    PTCLDY      43  33  67  W32G39  30.04R WCI 32
#ELLENSBURG CWU N/A         49  35  58  N10     30.02R
#ELLENSBURG 3NE N/A         48  37  65  N14G29  30.06R WCI 42
#ELLENSBURG     N/A         52  38  59  NW7     N/A
#ELLENSBURG 1E  N/A         49  N/A N/A CALM    N/A
#KITTITAS 3S    N/A         49  37  63  W10     30.05R
#THORP 6N       N/A         45  36  70  W29G44  30.09R WCI 35
$$

WAZ027-300610-
YAKIMA VALLEY

CITY            SKY/WX      TMP DP  RH  WIND    PRES   REMARKS
YAKIMA AIRPORT  CLEAR       56  32  40  NW17G26 30.08R
YAKIMA-VAGABOND CLEAR       52  34  50  N6      30.07R
#GRANDVIEW      N/A         54  33  45  NW3     30.07R
#MABTON         N/A         56  37  49  W7      30.06R
#MOXEE 2E       N/A         52  22  31  NW7     30.00R
#NACHES 2SW     N/A         50  36  58  W15G30  30.06R
#TERRACE HTS    N/A         52  36  54  NW7     30.02R
#TOPPENISH      N/A         54  36  50  N5      29.99R
#WEST VALLEY    N/A         53  34  48  N9G24   30.03S
#W YAKIMA       N/A         53  35  50  N7      30.07R
#WHITE SWAN 5E  N/A         52  36  54  W2      30.07R
#WILEY CITY 3W  N/A         50  28  42  CALM    30.04R
$$

WAZ028-300610-
LOWER COLUMBIA BASIN...WASHINGTON

CITY            SKY/WX      TMP DP  RH  WIND    PRES   REMARKS
PASCO           MOCLDY      51  44  77  N7      30.04R
PROSSER AWOS    N/A         52  37  56  SW8     30.09R
RICHLAND AWOS   CLEAR       52  39  61  W5      30.05R
#BENTON CITY    N/A         55  36  49  W12     29.94R
#CONNELL 5N     N/A         52  48  86  CALM    30.02R
#CONNELL 5NW    N/A         52  48  86  CALM    29.98R
#ELTOPIA 6NW    N/A         55  42  61  CALM    29.00R
#KAHLOTUS       N/A         52  48  86  SW3     30.02R
#KENNEWICK 3S   N/A         53  43  69  CALM    30.04R
#PATERSON       N/A         56  38  51  NE6     30.03R
#SAGEMOOR 2W    N/A         55  40  57  W7      29.87R
#TOUCHET 2S     N/A         55  45  69  CALM    30.02R
#WEST PASCO     N/A         57  40  53  N2      30.10R
$$

WAZ029-300610-
FOOTHILLS OF THE BLUES...WASHINGTON

CITY            SKY/WX      TMP DP  RH  WIND    PRES   REMARKS
WALLA WALLA AP  CLOUDY      54  44  69  S7      30.06R
#CLYDE 6NW      N/A         52  47  83  S5      30.04R
#DAYTON SCHOOL  N/A         50  41  71  S1      30.06R
#LOWDEN 2SE     N/A         54  50  86  CALM    30.01R
#PLEASANT VIEW 1N/A         49  46  89  S5      30.08R
#PRESCOTT       N/A         51  48  89  CALM    30.03R
#SUDBURY        N/A         57  N/A N/A CALM    N/A
#WHITMAN COLLEGEN/A         54  46  74  SE2     30.10R
#WAITSBURG 5S   N/A         50  45  83  S6      30.15R
#WAITSBURG 8N   N/A         49  30  48  S3      29.91R
#WALLA WALLA U  N/A         54  47  77  CALM    30.04R
#WHITMAN MISSIONN/A         53  49  86  CALM    30.06R
$$

WAZ030-300610-
BLUE MOUNTAINS...WASHINGTON

CITY            SKY/WX      TMP DP  RH  WIND    PRES   REMARKS
#DIXIE 5SE      N/A         43  40  89  S10     29.99R
$$

ORZ009-041-WAZ024-300610-
COLUMBIA RIVER GORGE

CITY            SKY/WX      TMP DP  RH  WIND    PRES   REMARKS
HOOD RIVER AP   PTCLDY      54  41  61  CALM    30.16R
THE DALLES AP   CLEAR       57  39  51  W13     30.11R
#ARLINGTON AIRPON/A         54  40  59  W9      30.08R
#CELILO DOT     N/A         57  40  53  SW8     N/A
#MARYHILL 2W    N/A         54  42  64  NW8     N/A
#MOSIER 1S      N/A         54  30  40  NW7     30.12R
#MURDOCK        N/A         57  44  62  NW20G28 30.07R
#RUFUS DOT      N/A         59  40  49  W22     N/A

$$

ORZ510-300610-
NORTH CENTRAL OREGON

CITY            SKY/WX      TMP DP  RH  WIND    PRES   REMARKS
#ANTELOPE       N/A         39  32  76  CALM    30.03R
#COW CYN RST AREN/A         42  34  73  SW3     N/A
#DUFUR 9E       N/A         47  38  71  W12     30.17R WCI 42
#GRASS VALLEY   N/A         47  37  68  W2      N/A
#GRASS VALLEY 1SN/A         48  37  65  NW16G26 30.04R WCI 42
#KENT DOT       N/A         44  30  58  N12     N/A    WCI 38
#MAUPIN SCHOOL  N/A         51  38  61  CALM    30.16R
#MORO SCHOOL    N/A         50  42  74  W15G24  30.10R
#SHANIKO 5WSW   N/A         42  30  62  NW10    N/A
#TYGH VALLEY 2NEN/A         51  38  61  CALM    30.12R
#WAPANITIA AIRPON/A         47  38  71  W6      30.13R
#WASCO DOT      N/A         50  40  68  W6      N/A
#WASCO 5NE      N/A         50  41  71  W10     30.08R
$$

ORZ511-300610-
CENTRAL OREGON

CITY            SKY/WX      TMP DP  RH  WIND    PRES   REMARKS
BEND AIRPORT    MOCLEAR     41  32  70  N6      30.14R
MADRAS AIRPORT  CLEAR       39  34  82  NW6     30.16R
PRINEVILLE AP   CLEAR       43  34  70  NW12    30.14R WCI 37
REDMOND AIRPORT PTCLDY      42  33  70  NW3     30.14R
#ASHWOOD SCHOOL N/A         44  36  73  CALM    30.09R
#BEND 1SW       N/A         40  33  76  CALM    N/A
#BEND-AWBREY    N/A         41  34  76  N2      30.15R
#BEND-KIM LN    N/A         41  33  73  CALM    30.11R
#CULVER         N/A         42  33  70  CALM    30.12R
#LAKE BILLY CHINN/A         47  N/A N/A N3      30.19R
#POWELL BUTTE   N/A         41  32  70  W2      30.00R
#PRINEVILLE 3N  N/A         42  34  73  NW1     30.15R
#WARM SPRINGS   N/A         51  38  61  SW7     30.11R

$$


ORZ509-300610-
EAST SLOPES OF OREGON CASCADES

CITY            SKY/WX      TMP DP  RH  WIND    PRES   REMARKS
SISTERS AWOS    N/A         45  36  70  W9      30.11R
#BLUE BOX PASS  N/A         38  N/A N/A W2      N/A
#BLACK BUTTE RNCN/A         41  36  82  CALM    30.16R
#CAMP SHERMAN   N/A         42  33  70  CALM    30.23S
#LA PINE 4NW    N/A         38  31  76  CALM    30.19R
#LAVA BUTTE DOT N/A         37  26  64  CALM    N/A
#SISTERS AIRPOR N/A         43  39  86  N5      30.17S
#SISTERS ODOT   N/A         44  N/A N/A S7      N/A
#SISTERS 3N     N/A         42  31  65  CALM    30.11S
#SUNRIVER       N/A         35  30  82  CALM    30.18R
#SUTTLE LK DOT  N/A         35  34  96  N22G35  N/A    WCI 23
#TUMALO 3W      N/A         41  33  73  NW5     30.04R
#WANOGA BUTTE D N/A         N/A N/A N/A SW5     N/A

$$

ORZ044-300610-
LOWER COLUMBIA BASIN...OREGON

CITY            SKY/WX      TMP DP  RH  WIND    PRES   REMARKS
HERMISTON       MOCLDY      56  41  57  W9      30.05R
#BOARDMAN SCHOOLN/A         58  39  49  SW3     30.06R
#BOARDMAN 8SW   N/A         54  43  66  W3      30.06
#ECHO 8SW       N/A         55  40  57  W6      30.07R
#I-84 EX 198 DOTN/A         56  40  55  E10     N/A
#UMATILLA SCHOOLN/A         56  44  64  W7      30.06R
#UMATILLA       N/A         58  39  49  W3      29.97R
$$

ORZ507-300610-
NORTHERN FOOTHILLS OF THE BLUES

CITY            SKY/WX      TMP DP  RH  WIND    PRES   REMARKS
PENDLETON AIRPT CLOUDY      54  37  52  W13     30.05R
#ADAMS 3WNW     N/A         49  44  83  CALM    30.06R
#ATHENA         N/A         50  44  80  CALM    30.08R
#CAYUSE         N/A         52  42  69  W5      30.05R
#HELIX SCHOOL   N/A         48  44  86  SE3     30.05R
#HELIX 3N       N/A         48  43  83  N6      30.03R
#HELIX 6SW      N/A         51  43  74  CALM    30.05R
#HOLDMAN 5SE    N/A         52  43  71  SW2     30.04R
#HOLDMAN 6E     N/A         52  43  71  N5      29.86R
#M-F FERNDALE   N/A         53  46  77  CALM    30.04R
#M-F GROVE ELEM N/A         52  44  74  CALM    30.03R
#M-FREEWATER 5SEN/A         50  45  83  SE7     30.05R
#PENDLETON DNTN N/A         54  37  52  CALM    30.07S
#PDT AQUATIC CTRN/A         55  37  51  CALM    30.08R
#PDT SUNRIDGE   N/A         52  43  71  CALM    30.08R
#PENDLETON 7NW  N/A         53  40  61  SW2     27.45S
#PILOT ROCK     N/A         53  37  54  CALM    30.06R
#TUTUILLA       N/A         50  42  74  CALM    30.06R
#UMAPINE 2E     N/A         53  47  80  CALM    30.02R
#WESTON SCHOOL  N/A         50  41  71  SW1     29.98R

$$

ORZ508-300610-
SOUTHERN FOOTHILLS OF THE BLUES

CITY            SKY/WX      TMP DP  RH  WIND    PRES   REMARKS
#AJAX           N/A         49  32  52  S7      27.85R
#CONDON SCHOOL  N/A         46  37  71  W7      30.05R
#CONDON 5W      N/A         42  33  70  NW10    30.06R
#FOSSIL SCHOOL  N/A         49  37  63  W7      30.05R
#HEPPNER EOC    N/A         49  39  68  W2      30.03R
#HEPPNER 4NE    N/A         46  39  76  W6      30.09R
#LEXINGTON 2SE  N/A         53  39  59  W5      30.05R
#RUGGS 5NE      N/A         46  38  73  W6      30.27R
#RUGGS 2SW      N/A         47  37  68  W8      30.11R

$$

ORZ502-503-300610-
BLUE MOUNTAINS

CITY            SKY/WX      TMP DP  RH  WIND    PRES   REMARKS
#BATTLE MTN DOT N/A         41  41  100 NW1     N/A
#GREENHORN 9SW  N/A         42  38  86  W1      26.26R
#HARDMAN 10S    N/A         61  34  36  N5      30.22S
#HEPPNER 15SE   N/A         39  38  96  CALM    30.00R
#LADD CYN SMT   N/A         44  35  70  N5      N/A
#LADD CREEK ODOTN/A         46  37  71  CALM    N/A
#LONG CREEK HS  N/A         42  41  96  CALM    N/A
#N POWDER DOT   N/A         46  38  73  N8      N/A
#PIKES PEAK     N/A         44  39  82  S10     27.99S
#TOLLGATE       N/A         37  36  96  CALM    29.91R
#TROY SCHOOL    N/A         49  45  86  CALM    29.90R
#UKIAH          N/A         44  40  86  SE1     30.01R
#WESTON 4E      N/A         43  41  93  SE1     30.05R
$$

ORZ505-300610-
JOHN DAY BASIN

CITY            SKY/WX      TMP DP  RH  WIND    PRES   REMARKS
JOHN DAY        CLOUDY      45  38  76  CALM    30.09R
#DAYVILLE SCHOOLN/A         50  35  56  CALM    30.04R
#MITCHELL       N/A         49  38  66  NW1     30.25R
#MITCHELL 8NW   N/A         43  33  67  CALM    30.32R
#MONUMENT HS    N/A         48  40  74  CALM    30.08R
#MT. VERNON 5SE N/A         42  36  79  CALM    30.03R
#SPRAY SCHOOL   N/A         53  N/A N/A CALM    N/A
#WINLOCK        N/A         44  34  68  NE10    30.04R
$$

ORZ506-300610-
OCHOCO AND JOHN DAY HIGHLANDS

CITY            SKY/WX      TMP DP  RH  WIND    PRES   REMARKS
#HORSE RIDGE DO N/A         40  30  67  NW8     N/A
#KEYES SMT DOT  N/A         42  32  67  N13     N/A    WCI 35
#PAULINA SCHOOL N/A         48  34  58  N3      29.30R
#PINE MTN OBS   N/A         30  29  96  NW15G29 N/A    WCI 19
#PRAIRIE CITY   N/A         43  38  82  CALM    30.05R
#SENECA         N/A         40  N/A N/A N6      N/A
#SENECA 9NW     N/A         39  34  82  CALM    30.08R
$$

ORZ049-300610-
GRANDE RONDE VALLEY

CITY            SKY/WX      TMP DP  RH  WIND    PRES   REMARKS
LA GRANDE       CLOUDY      48  34  58  N10     30.06R
#COVE           N/A         45  43  93  CALM    30.09R
#COVE SCHOOL    N/A         45  42  89  CALM    30.08R
#COVE 6NW       N/A         39  35  85  CALM    29.63S
#ELGIN 3N       N/A         46  39  76  CALM    30.04R
#ELGIN 1E       N/A         47  39  74  CALM    N/A
#ISLAND CITY 4N N/A         50  45  83  CALM    30.24R
#LADD CYN DOT   N/A         48  40  74  N6      N/A
#UNION 1S       N/A         48  40  74  N6      29.98R
$$

ORZ050-300610-
WALLOWA COUNTY

CITY            SKY/WX      TMP DP  RH  WIND    PRES   REMARKS
JOSEPH AIRPORT  CLOUDY      41  37  86  CALM    30.07R
#ENTERPRISE AP  N/A         49  29  46  CALM    29.99R
#ENTERPRISE HS  N/A         43  39  86  N1      30.07R
#IMNAHA SCHOOL  N/A         49  46  89  CALM    30.05R
#IMNAHA 10S     N/A         43  41  93  CALM    30.03R
#JOSEPH 3W      N/A         39  38  96  CALM    29.88R
#LOSTINE        N/A         43  40  89  CALM    29.87R
#MT HOWARD 8000 N/A         28  27  96  CALM    30.01R
#PROMISE 1S     N/A         41  38  89  CALM    30.18R
#WALLOWA SCHOOL N/A         46  40  79  CALM    30.03R



$$



USA.gov is the U.S. government's official web portal to all federal, state and local government web resources and services.